Radioactive Concentration measured by Seawater Radiation Monitor near Fukushima Daiichi Nuclear Power Station
Date,Time,Cs137(Bq/L),Cs134(Bq/L),Total β(Bq/L)
2016/12/30,00:00,0.85,0.096,ND
2016/12/30,00:10,0.82,0.079,ND
2016/12/30,00:20,0.80,0.077,9.3
2016/12/30,00:30,0.76,0.076,9.6
2016/12/30,00:40,0.74,0.064,9.6
2016/12/30,00:50,0.74,0.061,10
2016/12/30,01:00,0.73,0.054,13
2016/12/30,01:10,0.71,0.054,12
2016/12/30,01:20,0.71,0.062,11
2016/12/30,01:30,0.70,0.062,10
2016/12/30,01:40,0.67,0.063,9.9
2016/12/30,01:50,0.66,0.060,ND
2016/12/30,02:00,0.62,0.064,ND
2016/12/30,02:10,0.62,0.066,ND
2016/12/30,02:20,0.61,0.054,ND
2016/12/30,02:30,0.61,0.060,ND
2016/12/30,02:40,0.61,0.056,ND
2016/12/30,02:50,0.62,0.053,ND
2016/12/30,03:00,0.61,0.057,ND
2016/12/30,03:10,0.62,0.054,ND
2016/12/30,03:20,0.61,0.059,ND
2016/12/30,03:30,0.64,0.052,11
2016/12/30,03:40,0.64,0.057,13
2016/12/30,03:50,0.59,0.052,12
2016/12/30,04:00,0.63,0.049,9.7
2016/12/30,04:10,0.63,0.079,ND
2016/12/30,04:20,0.60,0.052,ND
2016/12/30,04:30,0.60,0.054,ND
2016/12/30,04:40,0.59,0.054,ND
2016/12/30,04:50,0.63,0.062,ND
2016/12/30,05:00,0.63,0.062,ND
2016/12/30,05:10,0.61,0.030,ND
2016/12/30,05:20,0.61,0.064,ND
2016/12/30,05:30,0.59,0.072,ND
2016/12/30,05:40,0.61,0.064,ND
2016/12/30,05:50,0.60,0.065,ND
2016/12/30,06:00,0.60,0.064,ND
2016/12/30,06:10,0.63,0.056,ND
2016/12/30,06:20,0.63,0.059,8.8
2016/12/30,06:30,0.64,0.051,ND
2016/12/30,06:40,0.64,0.052,ND
2016/12/30,06:50,0.61,0.032,9.0
2016/12/30,07:00,0.53,0.072,ND
2016/12/30,07:10,0.51,0.076,ND
2016/12/30,07:20,0.62,0.041,ND
2016/12/30,07:30,0.51,0.083,ND
2016/12/30,07:40,0.50,0.084,ND
2016/12/30,07:50,0.62,0.039,ND
2016/12/30,08:00,0.60,0.055,ND
2016/12/30,08:10,0.66,0.028,ND
2016/12/30,08:20,0.63,0.051,ND
2016/12/30,08:30,0.64,0.045,9.2
2016/12/30,08:40,0.66,0.043,ND
2016/12/30,08:50,0.66,0.054,ND
2016/12/30,09:00,0.67,0.055,ND
2016/12/30,09:10,0.67,0.058,ND
2016/12/30,09:20,0.65,0.025,ND
2016/12/30,09:30,0.65,0.030,ND
2016/12/30,09:40,0.66,0.030,ND
2016/12/30,09:50,0.68,ND,ND
2016/12/30,10:00,0.61,0.066,ND
2016/12/30,10:10,0.60,0.070,ND
2016/12/30,10:20,0.61,0.071,ND
2016/12/30,10:30,0.62,0.078,ND
2016/12/30,10:40,0.73,0.043,12
2016/12/30,10:50,0.65,0.083,13
2016/12/30,11:00,0.63,0.096,16
2016/12/30,11:10,0.74,0.063,12
2016/12/30,11:20,0.68,0.090,11
2016/12/30,11:30,0.59,0.098,11
2016/12/30,11:40,0.64,0.082,12
2016/12/30,11:50,0.61,0.075,10
2016/12/30,12:00,0.62,0.061,8.8
2016/12/30,12:10,0.63,0.056,9.7
2016/12/30,12:20,0.64,0.057,12
2016/12/30,12:30,0.65,0.056,14
2016/12/30,12:40,0.65,0.063,11
2016/12/30,12:50,0.68,0.054,11
2016/12/30,13:00,0.70,0.037,ND
2016/12/30,13:10,0.68,0.030,ND
2016/12/30,13:20,0.65,0.028,ND
2016/12/30,13:30,0.57,0.027,ND
2016/12/30,13:40,0.61,0.033,ND
2016/12/30,13:50,0.61,0.027,ND
2016/12/30,14:00,0.57,0.048,ND
2016/12/30,14:10,0.65,ND,ND
2016/12/30,14:20,0.59,0.046,ND
2016/12/30,14:30,0.60,0.047,ND
2016/12/30,14:40,0.58,0.045,ND
2016/12/30,14:50,0.58,0.045,ND
2016/12/30,15:00,0.58,ND,ND
2016/12/30,15:10,0.55,0.026,ND
2016/12/30,15:20,0.51,0.060,ND
2016/12/30,15:30,0.49,0.062,ND
2016/12/30,15:40,0.54,0.037,ND
2016/12/30,15:50,0.60,0.035,ND
2016/12/30,16:00,0.55,0.069,ND
2016/12/30,16:10,0.55,0.065,ND
2016/12/30,16:20,0.55,0.064,ND
2016/12/30,16:30,0.55,0.073,ND
2016/12/30,16:40,0.54,0.066,ND
2016/12/30,16:50,0.55,0.050,ND
2016/12/30,17:00,0.49,0.051,ND
2016/12/30,17:10,0.49,0.050,ND
2016/12/30,17:20,0.50,0.053,ND
2016/12/30,17:30,0.50,0.048,ND
2016/12/30,17:40,0.45,0.070,ND
2016/12/30,17:50,0.48,0.059,ND
2016/12/30,18:00,0.59,ND,ND
2016/12/30,18:10,0.64,ND,ND
2016/12/30,18:20,0.57,0.034,ND
2016/12/30,18:30,0.59,0.038,ND
2016/12/30,18:40,0.53,0.052,ND
2016/12/30,18:50,0.61,ND,ND
2016/12/30,19:00,0.54,0.058,ND
2016/12/30,19:10,0.54,0.068,ND
2016/12/30,19:20,0.55,0.069,ND
2016/12/30,19:30,0.56,0.065,ND
2016/12/30,19:40,0.56,0.056,ND
2016/12/30,19:50,0.54,0.062,ND
2016/12/30,20:00,0.53,0.059,ND
2016/12/30,20:10,0.53,0.058,ND
2016/12/30,20:20,0.62,0.034,ND
2016/12/30,20:30,0.63,0.025,ND
2016/12/30,20:40,0.58,0.060,ND
2016/12/30,20:50,0.60,0.062,ND
2016/12/30,21:00,0.60,0.067,ND
2016/12/30,21:10,0.61,0.062,ND
2016/12/30,21:20,0.63,0.062,ND
2016/12/30,21:30,0.67,0.042,ND
2016/12/30,21:40,0.68,0.043,9.3
2016/12/30,21:50,0.68,0.045,9.5
2016/12/30,22:00,0.66,0.048,9.3
2016/12/30,22:10,0.65,0.046,9.2
2016/12/30,22:20,0.64,0.051,ND
2016/12/30,22:30,0.62,0.051,ND
2016/12/30,22:40,0.58,0.067,ND
2016/12/30,22:50,0.60,0.061,ND
2016/12/30,23:00,0.63,0.057,ND
2016/12/30,23:10,0.62,0.058,ND
2016/12/30,23:20,0.61,0.059,ND
2016/12/30,23:30,0.62,0.061,ND
2016/12/30,23:40,0.63,0.056,ND
2016/12/30,23:50,0.60,0.067,ND
